Location: Acts Church of Fort Worth
(32.6786°N, 97.2668°W)
Time: 21:18:42
(UTC+00:00)

IRS-1C - Pass Details

Date: 18 January 2026
Orbit: 813 x 814 km, 99.0° (Epoch: 11 February)

Event Time Altitude Azimuth Distance (km) Brightness Sun altitude
Rises 00:31:56 0° 171° (S) 3,321 7.4 -9.5°
Reaches altitude 10° 00:34:16 10° 173° (S) 2,393 6.7 -9.9°
Maximum altitude 00:39:32 71° 257° (WSW) 859 4.5 -11.0°
Drops below altitude 10° 00:44:51 10° 342° (NNW) 2,406 6.6 -12.0°
Sets 00:47:13 0° 344° (NNW) 3,341 7.3 -12.5°
